Skip Page Navigation
NASA JPL Caltech
NASA Logo - Jet Propulsion Laboratory + View the NASA Portal
+ Center for Near-Earth Object Studies
JPL Home Earth Solar System Stars & Galaxies Technology
JPL Solar System Dynamics
BODIES ORBITS EPHEMERIDES TOOLS PHYSICAL DATA DISCOVERY FAQ SITE MAP
IMPORTANT: The SSD Announcement email list is now available. Major changes are coming in the near future, including possible hostname and/or URL changes. To be notified of such changes, subscribe to this email list.

Please visit this page for more details.


JPL Small-Body Database Browser
Search: [ help ]  
193463 (2000 XF10)
Classification: Main-belt Asteroid          SPK-ID: 2193463
Ephemeris | Orbit Diagram | Orbital Elements | Mission Design | Physical Parameters | Discovery Circumstances ]

[ show orbit diagram ]
Orbital Elements at Epoch 2459000.5 (2020-May-31.0) TDB
Reference: JPL 17 (heliocentric ecliptic J2000)
 Element Value Uncertainty (1-sigma)   Units 
e .2212397476379574 6.5521e-08  
a 2.609797104186034 2.5875e-08 au
q 2.032406251469644 1.797e-07 au
i 14.42140873578624 6.1693e-06 deg
node 63.62077464607483 2.3995e-05 deg
peri 292.839037105733 2.629e-05 deg
M 307.47341650778 1.554e-05 deg
tp 2459225.190751708234
(2021-Jan-10.69075171)
6.8835e-05 TDB
period 1539.95682256671
4.22
2.2902e-05
6.27e-08
d
yr
n .2337727881227041 3.4766e-09 deg/d
Q 3.187187956902424 3.1599e-08 au
  Orbit Determination Parameters
   # obs. used (total)      492  
   data-arc span      6758 days (18.50 yr)  
   first obs. used      2000-12-01  
   last obs. used      2019-06-03  
   planetary ephem.      DE431  
   SB-pert. ephem.      SB431-N16  
   condition code      0  
   norm. resid. RMS      .53669  
   source      ORB  
   producer      Otto Matic  
   solution date      2020-Feb-24 22:04:06  

Additional Information
 Earth MOID = 1.07896 au 
 Jupiter MOID = 2.41774 au 
 T_jup = 3.332 
[ hide covariance matrix ]
Orbital Elements at Epoch 2457080.5 (2015-Feb-27.0) TDB
Reference: JPL 17 (heliocentric ecliptic J2000)
 Element Value Uncertainty (1-sigma)   Units 
e .2215938621004014 6.5465e-08  
q 2.029785472260135 1.7929e-07 au
tp 2457688.456444877099
(2016-Oct-26.95644488)
5.4917e-05 TDB
node 63.63005013786187 2.3983e-05 deg
peri 293.2837391445884 2.6265e-05 deg
i 14.4290861275363 6.1741e-06 deg
  Orbit Determination Parameters
   # obs. used (total)      492  
   data-arc span      6758 days (18.50 yr)  
   first obs. used      2000-12-01  
   last obs. used      2019-06-03  
   planetary ephem.      DE431  
   SB-pert. ephem.      SB431-N16  
   condition code      0  
   norm. resid. RMS      .53669  
   source      ORB  
   producer      Otto Matic  
   solution date      2020-Feb-24 22:04:06  

Additional Information
 Jupiter MOID = 2.41774 au 
 T_jup = 3.332 
Orbit Covariance (6×6)
  e q tp node peri i
e 4.285602982038174E-15 -1.167451295227731E-14 2.440938924381352E-13 -1.001216358122969E-14 9.791456543758523E-14 -1.219711670929197E-14
q -1.167451295227731E-14 3.214472369682437E-14 -1.130416085835952E-13 2.909618352202611E-14 -1.93471674981998E-13 3.485475457467873E-14
tp 2.440938924381352E-13 -1.130416085835952E-13 3.015907012611532E-9 9.391089286163556E-12 6.188628432906971E-10 -1.111227349588776E-12
node -1.001216358122969E-14 2.909618352202611E-14 9.391089286163556E-12 5.751958021695951E-10 -5.551862342280023E-10 -5.54511390396985E-11
peri 9.791456543758523E-14 -1.93471674981998E-13 6.188628432906971E-10 -5.551862342280023E-10 6.898244325794343E-10 5.323535901326012E-11
i -1.219711670929197E-14 3.485475457467873E-14 -1.111227349588776E-12 -5.54511390396985E-11 5.323535901326012E-11 3.811911602469442E-11

Ephemeris | Orbit Diagram | Orbital Elements | Mission Design | Physical Parameters | Discovery Circumstances ]

Physical Parameter Table
Parameter Symbol Value Units Sigma Reference Notes
absolute magnitude H 15.3   n/a MPO475629  

193463 (2000 XF10)          Discovered 2000-Dec-01 by LINEAR at Socorro
Reference: 20081113/Numbers.arcLast Updated: 2008-11-17
Ephemeris | Orbit Diagram | Orbital Elements | Mission Design | Physical Parameters | Discovery Circumstances ]
ABOUT SSD CREDITS/AWARDS PRIVACY/COPYRIGHT GLOSSARY LINKS
FirstGov 2020-Apr-01 11:31 UT
(server date/time)  
NASA Home Page
Site Manager:   Ryan S. Park
Webmaster  Alan B. Chamberlin